TimeCDT,TemperatureF,Dew PointF,Humidity,Sea Level PressureIn,VisibilityMPH,Wind Direction,Wind SpeedMPH,Gust SpeedMPH,PrecipitationIn,Events,Conditions,WindDirDegrees,DateUTC
12:15 AM,69.8,69.8,100,29.96,7.0,Calm,Calm,-,N/A,,Clear,0,2013-07-12 05:15:00
12:35 AM,69.3,69.3,100,29.95,10.0,Calm,Calm,-,N/A,,Clear,0,2013-07-12 05:35:00
12:55 AM,69.3,69.3,100,29.95,10.0,NNW,3.5,-,N/A,,Clear,340,2013-07-12 05:55:00
1:15 AM,69.4,69.4,100,29.95,10.0,Calm,Calm,-,N/A,,Clear,0,2013-07-12 06:15:00
1:35 AM,69.1,69.1,100,29.96,7.0,Calm,Calm,-,N/A,,Clear,0,2013-07-12 06:35:00
1:55 AM,69.3,69.3,100,29.97,10.0,Calm,Calm,-,N/A,,Clear,0,2013-07-12 06:55:00
2:15 AM,69.4,69.4,100,29.97,10.0,Calm,Calm,-,N/A,,Clear,0,2013-07-12 07:15:00
2:35 AM,68.9,68.9,100,29.98,3.0,Calm,Calm,-,N/A,,Clear,0,2013-07-12 07:35:00
2:55 AM,68.2,68.2,100,29.97,3.0,Calm,Calm,-,N/A,,Clear,0,2013-07-12 07:55:00
3:15 AM,68.0,68.0,100,29.97,5.0,Calm,Calm,-,N/A,,Scattered Clouds,0,2013-07-12 08:15:00
3:35 AM,68.0,68.0,100,29.97,4.0,Calm,Calm,-,N/A,,Clear,0,2013-07-12 08:35:00
3:55 AM,68.4,68.4,100,29.97,7.0,Calm,Calm,-,N/A,,Clear,0,2013-07-12 08:55:00
4:15 AM,68.2,68.2,100,29.98,7.0,Calm,Calm,-,N/A,,Clear,0,2013-07-12 09:15:00
4:35 AM,68.4,68.4,100,29.98,7.0,Calm,Calm,-,N/A,,Clear,0,2013-07-12 09:35:00
4:55 AM,68.4,68.4,100,29.99,5.0,Calm,Calm,-,N/A,,Clear,0,2013-07-12 09:55:00
5:15 AM,68.2,68.2,100,29.99,7.0,Calm,Calm,-,N/A,,Clear,0,2013-07-12 10:15:00
5:35 AM,68.5,68.5,100,30.00,5.0,Calm,Calm,-,N/A,,Clear,0,2013-07-12 10:35:00
5:55 AM,69.1,69.1,100,30.00,10.0,Calm,Calm,-,N/A,,Clear,0,2013-07-12 10:55:00
6:15 AM,68.4,68.4,100,30.00,7.0,Calm,Calm,-,N/A,,Clear,0,2013-07-12 11:15:00
6:35 AM,68.4,68.4,100,30.01,5.0,Calm,Calm,-,N/A,,Clear,0,2013-07-12 11:35:00
6:55 AM,68.5,68.5,100,30.01,3.0,Calm,Calm,-,N/A,,Clear,0,2013-07-12 11:55:00
7:15 AM,69.8,69.8,100,30.02,7.0,Calm,Calm,-,N/A,,Clear,0,2013-07-12 12:15:00
7:35 AM,70.9,70.9,100,30.02,7.0,North,4.6,-,N/A,,Clear,10,2013-07-12 12:35:00
7:55 AM,72.5,72.5,100,30.03,10.0,North,4.6,-,N/A,,Clear,10,2013-07-12 12:55:00
8:15 AM,74.3,73.4,97,30.03,10.0,NNE,4.6,-,N/A,,Clear,20,2013-07-12 13:15:00
8:35 AM,75.4,72.9,92,30.03,10.0,NNE,5.8,-,N/A,,Clear,30,2013-07-12 13:35:00
8:55 AM,77.0,71.8,84,30.03,10.0,NE,4.6,-,N/A,,Clear,50,2013-07-12 13:55:00
9:15 AM,77.7,71.6,81,30.03,10.0,NE,6.9,-,N/A,,Clear,50,2013-07-12 14:15:00
9:35 AM,79.0,72.0,79,30.03,10.0,NE,5.8,-,N/A,,Clear,50,2013-07-12 14:35:00
9:55 AM,80.1,72.1,77,30.03,10.0,East,4.6,-,N/A,,Clear,80,2013-07-12 14:55:00
10:15 AM,81.0,71.8,74,30.03,10.0,NE,4.6,-,N/A,,Clear,50,2013-07-12 15:15:00
10:35 AM,82.8,72.5,71,30.03,10.0,ENE,5.8,-,N/A,,Clear,70,2013-07-12 15:35:00
10:55 AM,84.0,73.0,69,30.03,10.0,North,3.5,-,N/A,,Clear,360,2013-07-12 15:55:00
11:15 AM,85.1,72.5,66,30.03,10.0,NNE,3.5,-,N/A,,Clear,20,2013-07-12 16:15:00
11:35 AM,86.5,71.6,61,30.03,10.0,NE,4.6,-,N/A,,Clear,50,2013-07-12 16:35:00
11:55 AM,87.1,71.4,59,30.02,10.0,NE,5.8,-,N/A,,Clear,50,2013-07-12 16:55:00
12:15 PM,87.4,71.2,58,30.02,10.0,NNE,5.8,-,N/A,,Clear,20,2013-07-12 17:15:00
12:35 PM,88.2,71.1,57,30.01,10.0,North,6.9,-,N/A,,Clear,360,2013-07-12 17:35:00
12:55 PM,88.7,70.7,55,30.00,10.0,North,8.1,-,N/A,,Clear,360,2013-07-12 17:55:00
1:15 PM,90.0,67.8,48,30.01,10.0,NNE,9.2,-,N/A,,Clear,20,2013-07-12 18:15:00
1:35 PM,90.5,70.3,51,30.00,10.0,North,8.1,-,N/A,,Unknown,360,2013-07-12 18:35:00
1:55 PM,90.9,66.6,45,30.00,10.0,NE,8.1,18.4,N/A,,Scattered Clouds,40,2013-07-12 18:55:00
2:15 PM,90.7,67.5,46,29.99,10.0,NNE,5.8,-,N/A,,Clear,20,2013-07-12 19:15:00
2:35 PM,91.2,66.6,44,29.99,10.0,North,8.1,-,N/A,,Scattered Clouds,10,2013-07-12 19:35:00
2:55 PM,91.2,66.4,44,29.99,10.0,NNE,5.8,-,N/A,,Scattered Clouds,30,2013-07-12 19:55:00
3:15 PM,91.9,66.2,43,29.99,10.0,NNE,8.1,-,N/A,,Scattered Clouds,20,2013-07-12 20:15:00
3:35 PM,91.4,66.0,43,29.99,10.0,NNE,11.5,-,N/A,,Scattered Clouds,20,2013-07-12 20:35:00
3:55 PM,92.1,64.0,39,29.98,10.0,NNE,9.2,-,N/A,,Clear,30,2013-07-12 20:55:00
4:15 PM,91.9,63.5,39,29.98,10.0,North,9.2,-,N/A,,Clear,10,2013-07-12 21:15:00
4:35 PM,92.5,63.3,38,29.97,10.0,North,8.1,-,N/A,,Clear,360,2013-07-12 21:35:00
4:55 PM,92.3,64.0,39,29.96,10.0,North,6.9,-,N/A,,Clear,350,2013-07-12 21:55:00
5:15 PM,91.6,64.4,40,29.96,10.0,NNE,11.5,-,N/A,,Clear,30,2013-07-12 22:15:00
5:35 PM,91.4,64.0,40,29.96,10.0,North,6.9,-,N/A,,Clear,350,2013-07-12 22:35:00
5:55 PM,91.4,63.0,39,29.95,10.0,NNE,10.4,-,N/A,,Clear,30,2013-07-12 22:55:00
6:15 PM,91.2,63.0,39,29.94,10.0,NNE,8.1,-,N/A,,Clear,20,2013-07-12 23:15:00
6:35 PM,90.5,64.4,42,29.94,10.0,North,4.6,-,N/A,,Clear,360,2013-07-12 23:35:00
6:55 PM,90.0,63.3,41,29.94,10.0,NNE,8.1,-,N/A,,Clear,20,2013-07-12 23:55:00
7:15 PM,89.2,64.0,43,29.95,10.0,NNE,6.9,-,N/A,,Clear,20,2013-07-13 00:15:00
7:35 PM,87.6,64.8,46,29.95,10.0,NNE,4.6,-,N/A,,Clear,30,2013-07-13 00:35:00
7:55 PM,82.4,71.1,68,29.95,10.0,Calm,Calm,-,N/A,,Clear,0,2013-07-13 00:55:00
8:15 PM,82.0,68.7,64,29.96,10.0,Calm,Calm,-,N/A,,Clear,0,2013-07-13 01:15:00
8:35 PM,77.7,71.1,80,29.97,10.0,Calm,Calm,-,N/A,,Clear,0,2013-07-13 01:35:00
8:55 PM,79.9,64.0,58,29.98,10.0,NNE,3.5,-,N/A,,Clear,30,2013-07-13 01:55:00
9:15 PM,78.3,62.2,58,29.99,10.0,NE,3.5,-,N/A,,Clear,50,2013-07-13 02:15:00
9:35 PM,78.6,60.6,54,29.99,10.0,Calm,Calm,-,N/A,,Clear,0,2013-07-13 02:35:00
9:55 PM,77.5,61.2,57,30.00,10.0,ENE,3.5,-,N/A,,Clear,60,2013-07-13 02:55:00
10:15 PM,76.1,61.5,60,30.00,10.0,Calm,Calm,-,N/A,,Clear,0,2013-07-13 03:15:00
10:35 PM,71.8,65.3,80,30.00,10.0,Calm,Calm,-,N/A,,Clear,0,2013-07-13 03:35:00
10:55 PM,69.6,67.6,93,30.00,10.0,Calm,Calm,-,N/A,,Clear,0,2013-07-13 03:55:00
11:15 PM,68.2,66.7,95,30.00,10.0,Calm,Calm,-,N/A,,Clear,0,2013-07-13 04:15:00
11:35 PM,68.5,65.5,90,30.01,10.0,Calm,Calm,-,N/A,,Clear,0,2013-07-13 04:35:00
11:55 PM,67.1,66.9,99,30.01,10.0,Calm,Calm,-,N/A,,Clear,0,2013-07-13 04:55:00